Time,TemperatureF,DewpointF,PressureIn,WindDirection,WindDirectionDegrees,WindSpeedMPH,WindSpeedGustMPH,Humidity,HourlyPrecipIn,Conditions,Clouds,dailyrainin,SoftwareType,DateUTC
2013-01-16 00:04:00,28.6,24.0,30.17,NW,313,0.0,-999.0,83,-99.99,,,0.00,weatherlink.com 1.10,2013-01-16 05:04:00,
2013-01-16 00:19:00,28.7,24.0,30.17,NW,313,0.0,-999.0,83,-99.99,,,0.00,weatherlink.com 1.10,2013-01-16 05:19:00,
2013-01-16 00:34:00,28.7,24.0,30.15,NW,313,0.0,-999.0,82,-99.99,,,0.00,weatherlink.com 1.10,2013-01-16 05:34:00,
2013-01-16 00:49:00,28.7,24.0,30.14,NNE,21,0.0,-999.0,82,-99.99,,,0.00,weatherlink.com 1.10,2013-01-16 05:49:00,
2013-01-16 01:04:00,28.8,24.0,30.13,East,81,0.0,-999.0,82,-99.99,,,0.00,weatherlink.com 1.10,2013-01-16 06:04:00,
2013-01-16 01:19:00,28.8,24.0,30.13,ENE,63,0.0,-999.0,81,-99.99,,,0.00,weatherlink.com 1.10,2013-01-16 06:19:00,
2013-01-16 01:34:00,28.9,24.0,30.13,ENE,63,0.0,-999.0,81,-99.99,,,0.00,weatherlink.com 1.10,2013-01-16 06:34:00,
2013-01-16 01:49:00,29.0,24.0,30.13,ENE,63,0.0,-999.0,81,-99.99,,,0.00,weatherlink.com 1.10,2013-01-16 06:49:00,
2013-01-16 02:04:00,29.1,24.0,30.12,ENE,63,0.0,-999.0,81,-99.99,,,0.00,weatherlink.com 1.10,2013-01-16 07:04:00,
2013-01-16 02:19:00,29.2,24.0,30.13,ENE,63,0.0,-999.0,81,-99.99,,,0.00,weatherlink.com 1.10,2013-01-16 07:19:00,
2013-01-16 02:34:00,29.3,24.0,30.12,ENE,63,0.0,-999.0,80,-99.99,,,0.00,weatherlink.com 1.10,2013-01-16 07:34:00,
2013-01-16 02:49:00,29.3,24.0,30.12,ENE,63,0.0,-999.0,80,-99.99,,,0.00,weatherlink.com 1.10,2013-01-16 07:49:00,
2013-01-16 03:04:00,29.3,24.0,30.10,ENE,63,0.0,-999.0,80,-99.99,,,0.00,weatherlink.com 1.10,2013-01-16 08:04:00,
2013-01-16 03:19:00,29.4,24.0,30.10,ENE,63,0.0,-999.0,81,-99.99,,,0.00,weatherlink.com 1.10,2013-01-16 08:19:00,
2013-01-16 03:34:00,29.4,24.0,30.08,ENE,63,0.0,-999.0,81,-99.99,,,0.00,weatherlink.com 1.10,2013-01-16 08:34:00,
2013-01-16 03:49:00,29.4,24.0,30.08,ENE,63,0.0,-999.0,81,-99.99,,,0.00,weatherlink.com 1.10,2013-01-16 08:49:00,
2013-01-16 04:04:00,29.4,24.0,30.07,ENE,63,0.0,-999.0,81,-99.99,,,0.00,weatherlink.com 1.10,2013-01-16 09:04:00,
2013-01-16 04:19:00,29.4,25.0,30.06,ENE,63,0.0,-999.0,82,-99.99,,,0.00,weatherlink.com 1.10,2013-01-16 09:19:00,
2013-01-16 04:34:00,29.4,25.0,30.05,ENE,63,0.0,-999.0,82,-99.99,,,0.00,weatherlink.com 1.10,2013-01-16 09:34:00,
2013-01-16 04:49:00,29.3,24.0,30.04,ENE,63,0.0,-999.0,82,-99.99,,,0.00,weatherlink.com 1.10,2013-01-16 09:49:00,
2013-01-16 05:04:00,29.3,25.0,30.04,ENE,63,0.0,-999.0,83,-99.99,,,0.00,weatherlink.com 1.10,2013-01-16 10:04:00,
2013-01-16 05:19:00,29.3,25.0,30.05,ENE,63,0.0,-999.0,84,-99.99,,,0.00,weatherlink.com 1.10,2013-01-16 10:19:00,
2013-01-16 05:34:00,29.3,25.0,30.04,ENE,63,0.0,-999.0,84,-99.99,,,0.00,weatherlink.com 1.10,2013-01-16 10:34:00,
2013-01-16 05:49:00,29.4,25.0,30.04,ENE,63,0.0,-999.0,84,-99.99,,,0.00,weatherlink.com 1.10,2013-01-16 10:49:00,
2013-01-16 06:04:00,29.4,25.0,30.03,ENE,63,0.0,-999.0,84,-99.99,,,0.00,weatherlink.com 1.10,2013-01-16 11:04:00,
2013-01-16 06:19:00,29.3,25.0,30.02,ENE,63,0.0,-999.0,85,-99.99,,,0.00,weatherlink.com 1.10,2013-01-16 11:19:00,
2013-01-16 06:34:00,29.3,25.0,30.01,ENE,63,0.0,-999.0,85,-99.99,,,0.00,weatherlink.com 1.10,2013-01-16 11:34:00,
2013-01-16 06:49:00,29.3,25.0,30.01,ENE,63,0.0,-999.0,85,-99.99,,,0.00,weatherlink.com 1.10,2013-01-16 11:49:00,
2013-01-16 07:04:00,29.3,25.0,30.02,ENE,63,0.0,-999.0,85,-99.99,,,0.00,weatherlink.com 1.10,2013-01-16 12:04:00,
2013-01-16 07:19:00,29.3,25.0,30.01,ENE,63,0.0,-999.0,85,-99.99,,,0.00,weatherlink.com 1.10,2013-01-16 12:19:00,
2013-01-16 07:34:00,29.3,26.0,30.00,ENE,63,0.0,-999.0,86,-99.99,,,0.00,weatherlink.com 1.10,2013-01-16 12:34:00,
2013-01-16 07:49:00,29.4,26.0,29.99,ENE,63,0.0,-999.0,86,-99.99,,,0.00,weatherlink.com 1.10,2013-01-16 12:49:00,
2013-01-16 08:04:00,29.5,26.0,29.99,ENE,63,0.0,-999.0,87,-99.99,,,0.00,weatherlink.com 1.10,2013-01-16 13:04:00,
2013-01-16 08:19:00,29.6,26.0,29.99,ENE,63,0.0,-999.0,87,-99.99,,,0.00,weatherlink.com 1.10,2013-01-16 13:19:00,
2013-01-16 08:34:00,29.7,26.0,29.99,ENE,63,0.0,-999.0,87,-99.99,,,0.00,weatherlink.com 1.10,2013-01-16 13:34:00,
2013-01-16 08:49:00,30.0,27.0,29.98,ENE,63,0.0,-999.0,87,-99.99,,,0.00,weatherlink.com 1.10,2013-01-16 13:49:00,
2013-01-16 09:04:00,30.2,27.0,29.98,ESE,113,0.0,-999.0,87,-99.99,,,0.00,weatherlink.com 1.10,2013-01-16 14:04:00,
2013-01-16 09:19:00,30.6,27.0,29.97,SE,128,0.0,-999.0,86,-99.99,,,0.00,weatherlink.com 1.10,2013-01-16 14:19:00,
2013-01-16 09:34:00,31.1,27.0,29.95,SE,139,0.0,-999.0,85,-99.99,,,0.00,weatherlink.com 1.10,2013-01-16 14:34:00,
2013-01-16 09:49:00,31.5,27.0,29.94,SE,139,0.0,-999.0,84,-99.99,,,0.00,weatherlink.com 1.10,2013-01-16 14:49:00,
2013-01-16 10:04:00,32.2,27.0,29.93,SW,218,0.0,-999.0,81,-99.99,,,0.00,weatherlink.com 1.10,2013-01-16 15:04:00,
2013-01-16 10:19:00,32.8,27.0,29.92,SSW,212,0.0,-999.0,80,-99.99,,,0.00,weatherlink.com 1.10,2013-01-16 15:19:00,
2013-01-16 10:34:00,33.2,27.0,29.92,WSW,248,0.0,-999.0,79,-99.99,,,0.00,weatherlink.com 1.10,2013-01-16 15:34:00,
2013-01-16 10:49:00,33.4,28.0,29.91,SSE,164,0.0,-999.0,80,-99.99,,,0.00,weatherlink.com 1.10,2013-01-16 15:49:00,
2013-01-16 11:04:00,33.5,28.0,29.90,SSE,164,0.0,-999.0,79,-99.99,,,0.00,weatherlink.com 1.10,2013-01-16 16:04:00,
2013-01-16 11:19:00,33.7,28.0,29.87,SSE,165,0.0,-999.0,80,-99.99,,,0.00,weatherlink.com 1.10,2013-01-16 16:19:00,
2013-01-16 11:34:00,33.9,28.0,29.87,SSE,165,0.0,-999.0,79,-99.99,,,0.00,weatherlink.com 1.10,2013-01-16 16:34:00,
2013-01-16 11:49:00,34.3,29.0,29.86,SSE,165,0.0,-999.0,80,-99.99,,,0.00,weatherlink.com 1.10,2013-01-16 16:49:00,
2013-01-16 12:04:00,35.0,29.0,29.87,WNW,300,1.0,-999.0,79,-99.99,,,0.00,weatherlink.com 1.10,2013-01-16 17:04:00,
2013-01-16 12:19:00,35.3,29.0,29.85,West,276,0.0,-999.0,79,-99.99,,,0.00,weatherlink.com 1.10,2013-01-16 17:19:00,
2013-01-16 12:34:00,36.1,30.0,29.85,SW,236,3.0,-999.0,77,-99.99,,,0.00,weatherlink.com 1.10,2013-01-16 17:34:00,
2013-01-16 12:49:00,36.6,30.0,29.85,NW,309,1.0,-999.0,76,-99.99,,,0.00,weatherlink.com 1.10,2013-01-16 17:49:00,
2013-01-16 13:04:00,36.8,30.0,29.84,SSW,201,2.0,-999.0,77,-99.99,,,0.00,weatherlink.com 1.10,2013-01-16 18:04:00,
2013-01-16 13:19:00,37.3,30.0,29.84,East,82,2.0,-999.0,76,-99.99,,,0.00,weatherlink.com 1.10,2013-01-16 18:19:00,
2013-01-16 13:34:00,37.9,31.0,29.84,NW,313,5.0,-999.0,75,-99.99,,,0.00,weatherlink.com 1.10,2013-01-16 18:34:00,
2013-01-16 13:49:00,38.2,31.0,29.83,SW,222,1.0,-999.0,74,-99.99,,,0.00,weatherlink.com 1.10,2013-01-16 18:49:00,
2013-01-16 14:04:00,37.7,30.0,29.83,SW,215,0.0,-999.0,75,-99.99,,,0.00,weatherlink.com 1.10,2013-01-16 19:04:00,
2013-01-16 14:19:00,36.6,30.0,29.84,North,5,1.0,-999.0,78,-99.99,,,0.00,weatherlink.com 1.10,2013-01-16 19:19:00,
2013-01-16 14:34:00,36.2,31.0,29.83,WSW,242,4.0,-999.0,80,-99.99,,,0.00,weatherlink.com 1.10,2013-01-16 19:34:00,
2013-01-16 14:49:00,36.2,31.0,29.82,WSW,241,4.0,-999.0,80,-99.99,,,0.00,weatherlink.com 1.10,2013-01-16 19:49:00,
2013-01-16 15:04:00,36.2,31.0,29.82,West,260,7.0,-999.0,81,-99.99,,,0.00,weatherlink.com 1.10,2013-01-16 20:04:00,
2013-01-16 15:19:00,36.4,31.0,29.82,SSW,208,1.0,-999.0,80,-99.99,,,0.00,weatherlink.com 1.10,2013-01-16 20:19:00,
2013-01-16 15:34:00,36.2,30.0,29.82,WNW,296,2.0,-999.0,77,-99.99,,,0.00,weatherlink.com 1.10,2013-01-16 20:34:00,
2013-01-16 15:49:00,36.1,30.0,29.82,NW,308,5.0,-999.0,77,-99.99,,,0.00,weatherlink.com 1.10,2013-01-16 20:49:00,
2013-01-16 16:04:00,36.0,29.0,29.82,WNW,287,6.0,-999.0,77,-99.99,,,0.00,weatherlink.com 1.10,2013-01-16 21:04:00,
2013-01-16 16:19:00,35.9,30.0,29.83,SSW,207,6.0,-999.0,78,-99.99,,,0.00,weatherlink.com 1.10,2013-01-16 21:19:00,
2013-01-16 16:34:00,35.3,29.0,29.82,NW,325,1.0,-999.0,79,-99.99,,,0.00,weatherlink.com 1.10,2013-01-16 21:34:00,
2013-01-16 16:49:00,34.7,29.0,29.83,NNW,336,1.0,-999.0,79,-99.99,,,0.00,weatherlink.com 1.10,2013-01-16 21:49:00,
2013-01-16 17:04:00,34.5,29.0,29.82,SSW,202,4.0,-999.0,80,-99.99,,,0.00,weatherlink.com 1.10,2013-01-16 22:04:00,
2013-01-16 17:19:00,34.2,29.0,29.83,WNW,299,2.0,-999.0,80,-99.99,,,0.00,weatherlink.com 1.10,2013-01-16 22:19:00,
2013-01-16 17:34:00,33.8,28.0,29.83,SSE,163,8.0,-999.0,80,-99.99,,,0.00,weatherlink.com 1.10,2013-01-16 22:34:00,
2013-01-16 17:49:00,33.7,28.0,29.83,West,262,1.0,-999.0,78,-99.99,,,0.00,weatherlink.com 1.10,2013-01-16 22:49:00,
2013-01-16 18:04:00,33.7,28.0,29.84,WNW,296,2.0,-999.0,78,-99.99,,,0.00,weatherlink.com 1.10,2013-01-16 23:04:00,
2013-01-16 18:19:00,33.6,28.0,29.84,ESE,123,2.0,-999.0,79,-99.99,,,0.00,weatherlink.com 1.10,2013-01-16 23:19:00,
2013-01-16 18:34:00,33.3,28.0,29.84,NNW,334,1.0,-999.0,81,-99.99,,,0.00,weatherlink.com 1.10,2013-01-16 23:34:00,
2013-01-16 18:49:00,33.3,28.0,29.85,East,95,2.0,-999.0,82,-99.99,,,0.00,weatherlink.com 1.10,2013-01-16 23:49:00,
2013-01-16 19:04:00,33.3,28.0,29.85,SW,231,2.0,-999.0,82,-99.99,,,0.00,weatherlink.com 1.10,2013-01-17 00:04:00,
2013-01-16 19:19:00,33.3,28.0,29.84,WNW,288,0.0,-999.0,82,-99.99,,,0.00,weatherlink.com 1.10,2013-01-17 00:19:00,
2013-01-16 19:34:00,33.4,28.0,29.85,SSE,166,0.0,-999.0,79,-99.99,,,0.00,weatherlink.com 1.10,2013-01-17 00:34:00,
2013-01-16 19:49:00,33.2,27.0,29.84,East,86,1.0,-999.0,77,-99.99,,,0.00,weatherlink.com 1.10,2013-01-17 00:49:00,
2013-01-16 20:04:00,33.5,26.0,29.85,NW,318,3.0,-999.0,73,-99.99,,,0.00,weatherlink.com 1.10,2013-01-17 01:04:00,
2013-01-16 20:19:00,33.8,25.0,29.84,NNW,346,0.0,-999.0,69,-99.99,,,0.00,weatherlink.com 1.10,2013-01-17 01:19:00,
2013-01-16 20:34:00,34.0,24.0,29.84,SSW,213,2.0,-999.0,66,-99.99,,,0.00,weatherlink.com 1.10,2013-01-17 01:34:00,
2013-01-16 20:49:00,34.4,23.0,29.85,WSW,241,1.0,-999.0,64,-99.99,,,0.00,weatherlink.com 1.10,2013-01-17 01:49:00,
2013-01-16 21:04:00,34.9,23.0,29.86,WNW,300,1.0,-999.0,63,-99.99,,,0.00,weatherlink.com 1.10,2013-01-17 02:04:00,
2013-01-16 21:19:00,35.2,24.0,29.86,WNW,302,0.0,-999.0,63,-99.99,,,0.00,weatherlink.com 1.10,2013-01-17 02:19:00,
2013-01-16 21:34:00,35.8,25.0,29.87,WSW,249,7.0,-999.0,65,-99.99,,,0.00,weatherlink.com 1.10,2013-01-17 02:34:00,
2013-01-16 21:49:00,36.5,26.0,29.87,WNW,291,0.0,-999.0,65,-99.99,,,0.00,weatherlink.com 1.10,2013-01-17 02:49:00,
2013-01-16 22:04:00,36.5,26.0,29.87,WNW,290,1.0,-999.0,65,-99.99,,,0.00,weatherlink.com 1.10,2013-01-17 03:04:00,
2013-01-16 22:19:00,36.4,26.0,29.87,NW,318,1.0,-999.0,67,-99.99,,,0.00,weatherlink.com 1.10,2013-01-17 03:19:00,
2013-01-16 22:34:00,36.3,27.0,29.86,WNW,290,4.0,-999.0,68,-99.99,,,0.00,weatherlink.com 1.10,2013-01-17 03:34:00,
2013-01-16 22:49:00,36.2,27.0,29.86,NNW,327,6.0,-999.0,70,-99.99,,,0.00,weatherlink.com 1.10,2013-01-17 03:49:00,
2013-01-16 23:04:00,36.2,28.0,29.87,WNW,297,4.0,-999.0,72,-99.99,,,0.00,weatherlink.com 1.10,2013-01-17 04:04:00,
2013-01-16 23:19:00,35.9,29.0,29.88,NW,306,6.0,-999.0,76,-99.99,,,0.00,weatherlink.com 1.10,2013-01-17 04:19:00,
2013-01-16 23:34:00,34.3,30.0,29.88,WNW,284,12.0,-999.0,84,-99.99,,,0.00,weatherlink.com 1.10,2013-01-17 04:34:00,
2013-01-16 23:49:00,33.7,30.0,29.88,West,279,5.0,-999.0,86,-99.99,,,0.00,weatherlink.com 1.10,2013-01-17 04:49:00,